Simultaneous Nadir Overpasses (SNOs) Predictions

Prediction of SNOs between AQUA and METOP-C Satellite Orbit:

Table of predicted SNOs for the next 14.0 days since TLE Epoch: 9/25/2021
Index Date (AQUA) Time (AQUA) Lat,Lon (AQUA) SZA (AQUA ) Date (METOP-C) Time (METOP-C) Lat,Lon (METOP-C) SZA (METOP-C ) Distance(km) Time Diff (sec)
1 09/25/2021 03:09:12 -73.83, -53.11 105.32 09/25/2021 03:09:41 -73.82, -53.17 105.32 2.18 29
2 09/27/2021 21:54:01 73.78,-154.19 75.71 09/27/2021 21:53:20 73.77,-154.22 75.70 1.22 41
3 09/27/2021 22:43:28 -73.83, 13.33 104.23 09/27/2021 22:44:01 -73.83, 13.24 104.23 2.78 33
4 09/30/2021 17:28:17 73.79, -87.78 76.81 09/30/2021 17:27:39 73.81, -87.71 76.83 3.12 38
5 09/30/2021 18:17:44 -73.84, 79.75 103.13 09/30/2021 18:18:21 -73.83, 79.65 103.14 3.23 37
6 10/03/2021 13:02:33 73.81, -21.40 77.92 10/03/2021 13:01:59 73.80, -21.33 77.91 2.74 34
7 10/03/2021 13:52:00 -73.86, 146.14 102.02 10/03/2021 13:52:40 -73.87, 146.17 102.01 1.74 40
8 10/06/2021 08:36:47 73.80, 45.08 78.98 10/06/2021 08:36:18 73.78, 45.05 78.98 1.70 29
9 10/06/2021 09:26:14 -73.84,-147.38 100.96 10/06/2021 09:26:59 -73.87,-147.43 100.94 3.02 45



Historial Predications of SNOs between AQUA and METOP-C
